www.pogodaiklimat.ru

Погода и климат >> Архив погоды >> Украина >> Лошкаревка


ПОГОДА в Лошкаревке

  • Прогноз погоды в Лошкаревке
  • Монитор погоды в Лошкаревке

АРХИВ ПОГОДЫ в Лошкаревке

Время (UTC), дата Ветер
(напр.,м/с)
 
Видим.   Явления Облачность Т
(С)
Тd
(С)
f
(%)
Тe
(С)
Тes
(С)
Комфортность P
(гПа)
Po
(гПа)
Тmin
(С)
Tmax
(С)
R
(мм)
R24
(мм)
S
(см)
21 10.06 штиль 0 15 км 6/0
[Ac trans]
+22.7 +14.4 59 +26 +26 жарко 1016.2 1006.4
00 11.06 С 1 12 км ясно +18.8 +14.3 75 +21 +21 комфорт 1015.9 1006.0
03 11.06 С 1 10 км 4/0
[Ci fib]
+17.7 +12.9 73 +19 +20 1016.0 1006.0
06 11.06 В 4 10 км 3/0
[Ci fib]
+27.2 +10.7 36 +28 +34 жарко 1015.8 1006.1 +17.0
09 11.06 СВ 6 10 км 1/0
[Ci fib]
+31.9 +7.2 21 +30 +37 жарко 1015.0 1005.5
12 11.06 СВ 4 10 км ясно +33.2 +8.1 21 +32 +41 жарко 1014.0 1004.5
15 11.06 В 4 10 км ясно +32.6 +8.8 23 +31 +34 жарко 1013.2 1003.7
18 11.06 С 2 10 км ясно +26.6 +10.4 36 +27 +27 жарко 1013.5 1003.8 +33.2
21 11.06 С 1 14 км ясно +21.2 +12.5 58 +23 +23 комфорт 1014.0 1004.2
00 12.06 С 1 13 км ясно +18.4 +12.5 68 +20 +20 1013.2 1003.3
06 12.06 С 2 10 км ясно +26.4 +11.5 39 +28 +37 жарко 1012.3 1002.6 +16.7
09 12.06 СВ 3 10 км ясно +31.3 +12.8 32 +32 +47 жарко 1012.3 1002.8
12 12.06 СВ 3 10 км ясно +33.2 +12.2 28 +33 +45 жарко 1011.4 1002.0
15 12.06 В 4 10 км 3/3 600 м
[Cu hum]
+33.0 +18.0 41 +37 +39 очень
душно
1010.9 1001.5
18 12.06 СВ 1 10 км 3/3 600 м
[Cb calv]
+27.0 +16.5 53 +31 +31 душно 1011.7 1002.1 +33.8
21 12.06 штиль 0 13 км 8/0
[Ac trans]
+20.8 +12.3 58 +23 +23 комфорт 1012.9 1003.1
00 13.06 ЮВ 1 9000 м слаб. ливневой дождь 10/10 600 м
[Cb calv]
+19.8 +13.9 69 +23 +23 комфорт 1013.8 1003.9
03 13.06 штиль 0 4000 м слаб. ливневой дождь 10/10 600 м
[Cb calv]
+19.6 +16.6 83 +22 +22 комфорт 1013.1 1003.2
06 13.06 СЗ 3 10 км {ливн. осадки} 10/6 600 м
[Sc As trans]
+23.5 +15.7 62 +27 +28 душно 1013.0 1003.2 +19.6 0.0
09 13.06 СЗ 3 10 км 9/4 1000 м
[Sc Ac trans Ci fib]
+30.2 +17.7 47 +34 +40 очень
душно
1012.6 1003.1
12 13.06 С 5 10 км 8/5 1000 м
[Cu med, cong Ac trans Ci]
+34.0 +10.1 23 +33 +36 жарко 1012.0 1002.6
15 13.06 С 3 10 км гроза без осадков {ливн. осадки} 8/5 600 м
[Cb calv Ac trans Ci fib]
+30.8 +13.0 34 +32 +33 жарко 1012.1 1002.6
18 13.06 СВ 4 10 км {гроза} 10/8 600 м
[Cb calv Ci fib]
+25.6 +13.5 47 +28 +28 жарко 1014.7 1005.0 +36.1
21 13.06 С 2 14 км 8/3 600 м
[Sc Ac trans Ci fib]
+20.8 +14.8 69 +24 +24 комфорт 1016.1 1006.2
00 14.06 СВ 2 13 км 6/6 600 м
[Sc]
+20.4 +16.6 79 +24 +24 комфорт 1016.1 1006.2
06 14.06 СВ 3 10 км 4/0
[Ci fib]
+25.2 +14.8 52 +28 +35 жарко 1017.5 1007.8 +18.4
12 14.06 В 3 10 км 4/4 600 м
[Cu hum]
+32.2 +13.2 32 +33 +40 жарко 1017.1 1007.6
15 14.06 С 2 10 км 3/3 600 м
[Cu hum]
+32.0 +12.4 30 +32 +35 жарко 1015.9 1006.4
18 14.06 С 2 10 км 4/0
[Ci fib]
+26.6 +17.0 56 +31 +31 душно 1016.2 1006.5 +32.5
00 15.06 СЗ 1 12 км 1/0
[Ci fib]
+19.1 +16.6 85 +22 +22 комфорт 1016.3 1006.4
06 15.06 штиль 0 10 км 3/0
[Ci fib]
+25.4 +15.7 55 +29 +40 душно 1016.1 1006.4 +17.4
12 15.06 СВ 3 10 км ясно +32.2 +12.3 30 +33 +45 жарко 1013.3 1003.8
18 15.06 С 2 10 км 4/0
[Ci fib]
+26.4 +16.3 54 +30 +30 душно 1012.1 1002.4 +33.1
00 16.06 С 1 13 км 4/0
[Ci fib]
+19.9 +16.8 82 +24 +24 комфорт 1012.3 1002.4
06 16.06 С 3 10 км ясно +26.0 +16.2 55 +29 +37 душно 1011.9 1002.2 +18.8
12 16.06 СЗ 5 10 км 8/3 600 м
[Cu hum Ci fib]
+31.4 +12.3 31 +32 +36 жарко 1011.4 1001.9
18 16.06 С 1 10 км 8/0
[Ci fib]
+24.9 +13.0 48 +27 +27 жарко 1011.2 1001.5 +32.0
00 17.06 С 2 13 км 1/0
[Ci fib]
+18.3 +15.0 81 +19 +19 1013.1 1003.2
06 17.06 СВ 2 10 км 1/0
[Ci fib]
+24.1 +14.9 56 +27 +36 жарко 1014.9 1005.1 +17.0

 

Местоположение метеостанции Лошкаревка (Днепропетровская область, Украина): широта 48.00 долгота 34.20 высота над уровнем моря 84 м.

В архиве по умолчанию представлена погода в Лошкаревке за последнюю неделю. Архивные данные за месяц целиком и за предыдущие месяцы, начиная с января 2011 года, Вы можете получить, выбрав интересующий диапазон дат из раскрывающегося списка и нажав кнопку "Ввод!".


*Определитесь, кто Вы:
робот инопланетянин человек

Внимание! Время в таблицах - всемирное. Для получения местного времени необходимо прибавить поправку, которая равна 2 ч.

Смотрите также архив погоды в соседних городах и на ближайших метеорологических станциях:

Погода в Никополе (Днепропетровская область, Украина) (50 км)
Погода в Комиссаровке (Днепропетровская область, Украина) (53 км)
Погода в Запорожье (Запорожская область, Украина) (65 км)
Погода в Кривом Роге (Днепропетровская область, Украина) (73 км)
Погода в Днепре (Днепропетровская область, Украина) (88 км)
Погода в Великой Александровке (Херсонская область, Украина) (102 км)
Погода в Синельниково (Днепропетровская область, Украина) (106 км)
Погода в Долинской (Кировоградская область, Украина) (107 км)
Погода в Пришибе (Запорожская область, Украина) (117 км)
Погода в Губинихе (Днепропетровская область, Украина) (118 км)

Пояснения к столбцам:

Ветер - указаны скорость ветра в м/с - средняя за 10 мин, порывы в срок и между сроками (в фигурных скобках) и направление, откуда дует ветер: С - северный, СВ - северо-восточный, В - восточный, ЮВ - юго-восточный, Ю - южный, ЮЗ - юго-западный, З - западный, СЗ - северо-западный.
Видимость - горизонтальная дальность видимости в метрах или километрах. При видимости от 1 до 10 км при отсутствии осадков обычно наблюдается дымка, при ухудшении видимости до 1 км и менее - туман. В сухую погоду видимость может ухудшаться дымом, пылью или мглою.
Явления - указаны атмосферные явления, наблюдавшиеся в срок или в последний час перед сроком; фигурными скобками обозначены явления, наблюдавшиеся между сроками (за 1-3 часа до срока); квадратными скобками обозначены град или гололедные отложения с указанием их диаметра в мм.
Облачность - указаны через наклонную черту общая и нижняя облачность в баллах и высота нижней границы облаков в метрах; квадратными скобками обозначены формы облаков: Ci - перистые, Cs - перисто-слоистые, Cc - перисто-кучевые, Ac - высококучевые, As - высокослоистые, Sc - слоисто-кучевые, Ns - слоисто-дождевые, Cu - кучевые, Cb - кучево-дождевые. Подробнее классификацию облаков см. в Атласе облаков (PDF).
T - Температура воздуха - температура, измеренная на высоте 2 м над землей.
Td - Температура точки росы - температура, при понижении до которой содержащийся в воздухе водяной пар достигнет насыщения.
f - Относительная влажность воздуха - влажноcть воздуха, измеренная на высоте 2 м над землей.
Te - Эффективная температура - температура, которую ощущает одетый по сезону человек в тени. Характеристика душности погоды. При расчете учитывается влияние влажности воздуха и скорости ветра на теплоощущения человека.
Tes - Эффективная температура на солнце - температура, которую ощущает человек, с поправкой на солнечный нагрев. Характеристика знойности погоды. Зависит от высоты солнца над горизонтом, облачности и скорости ветра. Ночью, в пасмурную погоду, а также при ветре 12 м/с и более поправка равна нулю.
P - Атмосферное давление - приведенное к уровню моря атмосферное давление.
Po - Атмосферное давление - измеренное на уровне метеостанции атмосферное давление.
Tmin - Минимальная температура - минимум температуры воздуха на высоте 2 м над землей.
Tmax - Максимальная температура - максимум температуры воздуха на высоте 2 м над землей.
R - Количество осадков - Количество выпавших осадков за период времени, мм. При наведении курсора мыши на число - период времени, за который выпало указанное количество осадков.
R24 - Количество осадков - Количество выпавших осадков за 24 часа, мм.
S - Снежный покров - Высота снежного покрова, см. При наведении курсора мыши на число - состояние снежного покрова и степень покрытия местности в баллах.